Showing default

TIANZHOU 10, 69049

Orbit data source: Space-Track

TIANZHOU 10, 69049 is a payload satellite owned by ZZHGB (CN) in LEO that was launched on Mon, 11 May 2026 UTC via a CHANG ZHENG 7 launch vehicle from the Wenchang Satellite Launch Center (WSC). Payload-class satellites include a variety of spacecraft equipped with specific instruments for various scientific and technological missions. These include communications satellites like Starlink; space stations such as the ISS; scientific satellites like the Hubble; Earth observation satellites from companies like Planet Labs, Umbra, and HawkEye 360; GPS; miniature CubeSats for education and research; and military/defense satellites.

Loading next visibility...
Identifier
69049, 2026-102A
Orbit
LEO
Country
Flag of CNCN / PRC
Related business
Manufacturer
CAST
Mission
Operational spacecraft
Bus & Motor
TIANZHOU, Unknown motor
Mass
~14,000 kg wet, 6,000 kg dry
Launch date (UTC)
2026-05-11 (1 month ago)
Launch vehicle
CHANG ZHENG 7
Launch site
Wenchang Satellite Launch Center (WSC)
Object type
Payload
Rocket body
Debris
Shape & HBR
Unknown shape, 14.5 m
Radar Cross Section
Large (>1 m²)

Expand to show TLE details & history
Last TLE update: 16 hours ago

TLE from 16 hours ago
0 TIANZHOU 10
1 69049U 26102A   26168.42493671  .00019059  00000-0  22524-3 0  9990
2 69049  41.4698 320.5549 0007448  79.0954 281.0722 15.60819135  5867
Epoch: 2026-06-17T10:11Z
TLE epoch observation values (Epoch: 2026-06-17T10:11:54.531Z)
Latitude
-0.00007°
Longitude
-98.1052°
Altitude
383.926 km
Speed
7.682 km/s
True Right ascension
21h 22m 13s
True Declination
0° 00' 00"
Sunlit
Object was in full shadow at epoch
Visualization orbit readout
Latitude
Unknown
Longitude
Unknown
Altitude
Unknown
Speed
Unknown
Apparent Right ascension
Unknown
Apparent Declination
Unknown
Sunlit
N/A
Visualization observer readout
Local Sidereal Time
13:00:56
Azimuth
Unknown
Elevation
Unknown
Doppler factor
Unknown
Orbital elements
Apogee altitude
392.562 km
Perigee altitude
382.484 km
Semi-major axis
6,765.66 km
Eccentricity
0.00074
Inclination
41.4698°
RAAN
320.5549°
Arg. of periapsis
79.0954°
True anomaly
280.98843°
Mean anomaly
281.0722°
Eccentric anomaly
281.03031°
Mean motion
3.90012 °/min
Orbital period
92.3 mins
BSTAR
0.00022524
Loading maneuver chart data...
Computing Atmospheric mass density...
Loading historical data...
Loading historical data...
Loading historical data...
Loading historical data...
Loading historical data...
Loading historical data...
Loading historical data...
Other satellites on launch #102 in the year 2026 (2026-05-11 UTC)

Documentation

Showing up to 5 results
|